Flag for Estonia Weather past 2 weeks in Tartu, Estonia

Now
23 °F

Clear.


Feels Like: 16 °F
Forecast: 23 / 35 °F
Wind: 6 mph from Southeast

Location: Tartu/Ulenurme

Current Time: Oct 23, 2014 at 8:11:39 PM

Latest Report: Oct 23, 2014 at 6:50 PM


Visibility: 10 mi

Pressure: 30.54 "Hg

Humidity: 58%

Dew point: 10 °F

Location of TartuLocation

Historic Weather in Tartu — Graph

°F

Tartu temperature yesterday

Maximum temperature yesterday: 30 °F (at 12:50 AM)
Minimum temperature yesterday: 27 °F (at 7:50 AM)
Average temperature yesterday: 28 °F

Past Weeks' High & Low Weather Summary

 TemperatureHumidityPressure
High59 °F (Oct 10, 12:50 PM)100% (Oct 10, 12:50 AM)30.54 "Hg (Oct 10, 12:50 AM)
Low18 °F (Oct 23, 5:50 AM)47% (Oct 22, 4:50 PM)29.30 "Hg (Oct 20, 2:50 PM)
Average43 °F82%29.91 "Hg
* Reported Oct 8 6:50 PM — Oct 23 6:50 PM, Tartu, Weather by CustomWeather, © 2014

Note: Actual official high and low records may vary slightly from our data, if they occured in-between our weather recording intervals... More about our weather records

Advertising

Tartu weather history for previous 24 hours

 ConditionsComfort  
Time TempWeatherWind HumidityBarometerVisibility
6:50 PM
Oct 23
23 °FClear.6 mph58%30.54 "Hg10 mi
5:50 PM23 °FSunny.7 mph58%30.54 "Hg10 mi
4:50 PM27 °FSunny.10 mph50%30.54 "Hg10 mi
3:50 PM27 °FSunny.10 mph50%30.54 "Hg10 mi
2:50 PM27 °FPassing clouds.7 mph50%30.54 "HgN/A
1:50 PM25 °FSunny.9 mph54%30.54 "Hg10 mi
12:50 PM25 °FSunny.12 mph50%30.54 "Hg10 mi
11:50 AM23 °FSunny.14 mph54%30.51 "Hg10 mi
10:50 AM23 °FCold.15 mph63%30.51 "HgN/A
9:50 AM19 °FCold.13 mph73%30.48 "HgN/A
8:50 AM18 °FCold.12 mph79%30.48 "HgN/A
7:50 AM18 °FCold.12 mph79%30.45 "HgN/A
6:50 AM19 °FCold.9 mph73%30.42 "HgN/A
5:50 AM18 °FCold.6 mph79%30.42 "HgN/A
4:50 AM19 °FCold.6 mph73%30.39 "HgN/A
3:50 AM19 °FCold.5 mph73%30.39 "HgN/A
2:50 AM21 °FPassing clouds.6 mph68%30.39 "HgN/A
1:50 AM23 °FOvercast.9 mph63%30.36 "HgN/A
12:50 AM23 °FOvercast.8 mph68%30.33 "HgN/A
11:50 PM
Oct 22
27 °FOvercast.13 mph59%30.33 "HgN/A
10:50 PM27 °FOvercast.13 mph64%30.27 "HgN/A
9:50 PM27 °FOvercast.12 mph69%30.24 "HgN/A
8:50 PM27 °FChilly.8 mph64%30.21 "HgN/A
Weather by CustomWeather, © 2014

See weather overviewHow to use our weather pages